sat.trackr.live / text

‹ back to catalog

HEAD-3C

NORAD 57628 · 2023-121C

PAYLOAD ACTIVE UNKNOWN

§ Identity

Operator
Country
PRC
Launch date
2023-08-14
Launch site
XICLF
Launch vehicle
Mass (kg)
RCS (m²)

External: N2YO · Heavens-Above · Gunter

§ Orbital elements

Epoch: 2026-09-21T22:00:52.256736Z

Period
98.47 min
Inclination
44.9993°
Eccentricity
0.0006076
Mean motion
14.62381041 rev/d
Perigee alt
681.2 km
Apogee alt
689.8 km
Semi-major
7,063.6 km
B*
1.1544e-4
RAAN
182.3960°
Arg perigee
45.2287°
Mean anomaly
314.9065°
Rev number
16,589

§ Raw data

HEAD-3C1 57628U 23121C   26264.91727149  .00000427  00000+0  11544-3 0  99972 57628  44.9993 182.3960 0006076  45.2287 314.9065 14.62381041165891

JSON: /api/v1/satellites/57628 · /tle

For live sub-satellite position, see the globe view (requires WebGL).

§ Visibility from observer

Set your observer location to see the next 7 days of passes ≥ 10°. The values pass through the URL so the page stays shareable.

No JS? Fill the form by hand. The geolocation button needs JavaScript.